Weather Roundup
Issued by NWS

Home | Current Version | Previous Version | Text Only | Print | Product List | Glossary On
Versions: 1 2 3 4 5 6 7 8 9 10 11 12 13 14 15 16 17 18 19 20 21 22 23 24 25 26 27 28 29 30 31 32 33 34 35 36 37 38 39 40 41 42 43 44 45 46 47 48 49 50
551
NZUS93 KARX 231910
HRRWXR

CURRENT HOURLY OBSERVATIONS ACROSS
MUCH OF THE UPPER MISSISSIPPI VALLEY
NATIONAL WEATHER SERVICE LA CROSSE WI
200 PM CDT MON APR 23 2018


...SOUTHEAST MINNESOTA...


CITY           SKY/WX    TMP DP  RH WIND       PRES   REMARKS
ROCHESTER      FAIR      64  36  35 VRB5      30.18F
ROCHESTER/MAYO FAIR      66  32  27 NE7       30.19S
WINONA         FAIR      64  28  25 SW3       30.16F
AUSTIN         FAIR      63  37  39 CALM      30.18F
ALBERT LEA     FAIR      63  34  34 CALM      30.19F
DODGE CENTER   FAIR      63  36  36 N6        30.19F
PRESTON        FAIR      63  31  30 N8        30.19F
OWATONNA       FAIR      64  37  36 CALM      30.19F
FARIBAULT      NOT AVBL
$$

...ELSEWHERE IN MINNESOTA...


CITY           SKY/WX    TMP DP  RH WIND       PRES   REMARKS
MINNEAPOLIS    FAIR      67  34  29 SW10      30.18F
INTNL FALLS    FAIR      63  31  30 W15G21    30.13S
DULUTH         FAIR      66  38  35 W8        30.15F
RED WING       FAIR      66  25  20 S5        30.17F
REDWOOD FALLS  SUNNY     64  37  36 SW3       30.18F
MANKATO        FAIR      64  37  36 N7        30.19F
WORTHINGTON    NOT AVBL
FAIRMONT       SUNNY     58  39  49 CALM      30.20F
$$

...SOUTHWEST WISCONSIN...


CITY           SKY/WX    TMP DP  RH WIND       PRES   REMARKS
LA CROSSE      FAIR      67  29  24 NW9       30.17F
PRAIRIE DU CHI FAIR      67  22  17 NE6       30.15F
BOSCOBEL       FAIR      69  26  20 VRB6      30.16F
LONE ROCK      FAIR      67  26  21 E13       30.16F
PLATTEVILLE    FAIR      66  25  21 NE13G18   30.15F
FORT MC COY    FAIR      67  27  21 E10       30.18F
MAUSTON-NEW LI FAIR      64  28  26 N5        30.18F
VIROQUA        FAIR      63  33  31 N7        30.17F
WIS DELLS      FAIR      64  23  20 E9        30.17F
$$

...ELSEWHERE IN WISCONSIN...


CITY           SKY/WX    TMP DP  RH WIND       PRES   REMARKS
MILWAUKEE      PTSUNNY   57  29  34 N15       30.18F
MADISON        PTSUNNY   65  29  25 NE8G20    30.16F
GREEN BAY      FAIR      62  30  29 VRB6      30.21F
EAU CLAIRE     FAIR      66  29  24 VRB5      30.18F
BLACK RVR FLS  FAIR      68  16  13 NW3       30.17F
MEDFORD        FAIR      57  29  34 CALM      30.20F
WAUSAU         FAIR      62  23  22 VRB3      30.18F
WIS RAPIDS     FAIR      64  25  22 CALM      30.20F
MARSHFIELD     FAIR      60  30  32 SE6       30.19F
RICE LAKE      FAIR      62  32  32 S3        30.21F
$$

...NORTHEAST IOWA...


CITY           SKY/WX    TMP DP  RH WIND       PRES   REMARKS
WATERLOO       FAIR      68  31  25 NE6       30.14F
DUBUQUE        FAIR      66  24  20 NE17G26   30.13F
DECORAH        FAIR      64  28  25 NE10      30.16F
MASON CITY     SUNNY     65  40  39 NE10      30.19F
CHARLES CITY   FAIR      66  32  28 NE9       30.17F
OELWEIN        FAIR      66  28  24 NE12      30.15F
$$

...ELSEWHERE IN IOWA...


CITY           SKY/WX    TMP DP  RH WIND       PRES   REMARKS
DES MOINES     PTSUNNY   70  32  24 NE9G17    30.13F
IOWA CITY      FAIR      69  22  16 NE12G22   30.12F
FORT DODGE     SUNNY     67  34  29 NE13      30.16F
MARSHALLTOWN   SUNNY     69  31  24 E12       30.13F
CEDAR RAPIDS   FAIR      70  25  18 E17       30.11F
$$

...NORTHERN ILLINOIS...


CITY           SKY/WX    TMP DP  RH WIND       PRES   REMARKS
CHICAGO-OHARE  PTSUNNY   59  28  30 NE17      30.12F
CHICAGO-MIDWAY PTSUNNY   61  33  35 NE12      30.12F
MOLINE         FAIR      70  32  24 N10G21    30.07F
ROCKFORD       PTSUNNY   69  30  23 NE13G24   30.13F
PEORIA         CLOUDY    65  36  34 NE12G20   30.05F
$$

NOTE: "FAIR" INDICATES FEW OR NO CLOUDS BELOW 12,000 FEET WITH NO
SIGNIFICANT WEATHER AND/OR OBSTRUCTIONS TO VISIBILITY. WIND
SPEEDS ARE IN MILES-PER-HOUR.




USA.gov is the U.S. government's official web portal to all federal, state and local government web resources and services.